Edinburg, TX

8:34 PM CDT on April 19, 2018 (GMT -0500)
Edinburg

Weather History for KEBG - January, 2013

Change the Weather History Date:

Wednesday, January 30, 2013

  Actual Average (KMFE) Record (KMFE)
Temperature  
Mean Temperature 60 °F -  
Max Temperature 74 °F 71 °F 93 °F (1971)
Min Temperature 47 °F 51 °F 29 °F (1966)
Degree Days  
Heating Degree Days 4    
Growing Degree Days 10 (Base 50)    
Moisture  
Dew Point 16 °F    
Average Humidity 17    
Maximum Humidity 40    
Minimum Humidity 8    
Precipitation  
Precipitation 0.00 in - - ()
Sea Level Pressure  
Sea Level Pressure 30.06 in    
Wind  
Wind Speed 18 mph (NNW)    
Max Wind Speed 31 mph    
Max Gust Speed 41 mph    
Visibility 6 miles    
Events      
Averages and records for this station are not official NWS values.
T = Trace of Precipitation, MM = Missing Value Source: NWS Daily Summary

Daily Weather History Graph

Daily Weather History Graph

Search for Another Location

Airport or City:

Astronomy

Jan. 30, 2013 Rise Set
Actual Time 7:18 AM CST 6:14 PM CST
Civil Twilight 6:53 AM CST 6:38 PM CST
Nautical Twilight 6:26 AM CST 7:06 PM CST
Astronomical Twilight 5:58 AM CST 7:33 PM CST
Moon 9:45 PM CST (1/30) 9:12 AM CST (1/30)
Length of Visible Light 11h 44m
Length of Day
10h 56m
Waning Gibbous, 87% of the Moon is Illuminated
Jan 30
Waning Gibbous
Feb 3
Last Quarter
Feb 10
New
Feb 17
First Quarter
Feb 25
Full

Hourly Weather History & Observations

Time (CST) Temp. Dew Point Humidity Pressure Visibility Wind Dir Wind Speed Gust Speed Precip Events Conditions
12:35 AM 74.7 °F 49.1 °F 40% 29.74 in 7.0 mi North 17.3 mph 25.3 mph N/A   Mostly Cloudy
12:55 AM 73.8 °F 38.5 °F 28% 29.75 in 7.0 mi North 16.1 mph 21.9 mph N/A   Overcast
1:15 AM 73.6 °F 35.2 °F 25% 29.77 in 7.0 mi North 18.4 mph 25.3 mph N/A   Overcast
1:35 AM 73.4 °F 34.2 °F 24% 29.78 in 7.0 mi North 18.4 mph 24.2 mph N/A   Overcast
1:55 AM 72.9 °F 32.9 °F 23% 29.79 in 7.0 mi North 18.4 mph 25.3 mph N/A   Overcast
2:15 AM 72.3 °F 32.0 °F 23% 29.81 in 7.0 mi North 18.4 mph 26.5 mph N/A   Mostly Cloudy
2:35 AM 71.2 °F 32.0 °F 24% 29.82 in 7.0 mi North 21.9 mph 28.8 mph N/A   Mostly Cloudy
2:55 AM 70.2 °F 31.8 °F 24% 29.83 in 7.0 mi North 18.4 mph 25.3 mph N/A   Scattered Clouds
3:15 AM 69.6 °F 30.6 °F 23% 29.84 in 7.0 mi North 17.3 mph 23.0 mph N/A   Clear
3:35 AM 68.9 °F 29.3 °F 23% 29.86 in 7.0 mi North 17.3 mph 20.7 mph N/A   Scattered Clouds
3:55 AM 68.2 °F 28.8 °F 23% 29.87 in 7.0 mi North 15.0 mph - N/A   Scattered Clouds
4:15 AM 67.5 °F 27.9 °F 23% 29.88 in 7.0 mi North 20.7 mph 26.5 mph N/A   Clear
4:35 AM 66.4 °F 28.2 °F 24% 29.89 in 7.0 mi North 20.7 mph 25.3 mph N/A   Clear
4:55 AM 65.7 °F 25.5 °F 22% 29.91 in 7.0 mi NNW 20.7 mph 29.9 mph N/A   Clear
5:15 AM 64.6 °F 26.4 °F 24% 29.92 in 7.0 mi NNW 18.4 mph 24.2 mph N/A   Scattered Clouds
5:35 AM 63.5 °F 25.9 °F 24% 29.94 in 7.0 mi NNW 16.1 mph 23.0 mph N/A   Scattered Clouds
5:55 AM 62.8 °F 23.9 °F 23% 29.97 in 7.0 mi NNW 16.1 mph 26.5 mph N/A   Clear
6:15 AM 62.6 °F 13.8 °F 15% 29.99 in 5.0 mi North 24.2 mph 32.2 mph N/A   Haze
6:35 AM 62.1 °F 12.0 °F 14% 30.01 in 7.0 mi North 19.6 mph 28.8 mph N/A   Clear
6:55 AM 61.9 °F 11.7 °F 14% 30.03 in 7.0 mi NNW 20.7 mph 29.9 mph N/A   Clear
7:15 AM 61.7 °F 11.7 °F 14% 30.05 in 7.0 mi NNW 23.0 mph 28.8 mph N/A   Clear
7:35 AM 61.0 °F 11.8 °F 15% 30.06 in 7.0 mi North 18.4 mph 25.3 mph N/A   Clear
7:55 AM 61.3 °F 12.2 °F 15% 30.06 in 5.0 mi North 19.6 mph 26.5 mph N/A   Haze
8:15 AM 61.2 °F 12.2 °F 15% 30.08 in 7.0 mi North 19.6 mph 27.6 mph N/A   Clear
8:35 AM 61.7 °F 12.4 °F 15% 30.10 in 5.0 mi North 19.6 mph 25.3 mph N/A   Haze
8:55 AM 60.8 °F 12.0 °F 15% 30.11 in 7.0 mi NNW 15.0 mph - N/A   Clear
9:15 AM 61.5 °F 11.5 °F 14% 30.12 in 7.0 mi NNW 26.5 mph 31.1 mph N/A   Clear
9:35 AM 64.6 °F 10.4 °F 12% 30.12 in 5.0 mi NNW 31.1 mph 36.8 mph N/A   Haze
9:55 AM 64.4 °F 9.0 °F 11% 30.13 in 5.0 mi North 27.6 mph 41.4 mph N/A   Haze
10:15 AM 65.5 °F 7.2 °F 10% 30.14 in 5.0 mi NNW 28.8 mph 40.3 mph N/A   Haze
10:35 AM 66.4 °F 7.7 °F 10% 30.15 in 5.0 mi NNW 26.5 mph 35.7 mph N/A   Haze
10:55 AM 67.6 °F 7.7 °F 10% 30.15 in 4.0 mi NNW 28.8 mph 41.4 mph N/A   Haze
11:15 AM 68.2 °F 7.9 °F 10% 30.15 in 5.0 mi NNW 25.3 mph 35.7 mph N/A   Haze
11:35 AM 68.9 °F 7.2 °F 9% 30.14 in 5.0 mi NNW 28.8 mph 41.4 mph N/A   Haze
11:55 AM 68.5 °F 6.8 °F 9% 30.13 in 5.0 mi NNW 24.2 mph 35.7 mph N/A   Haze
12:15 PM 68.9 °F 6.8 °F 9% 30.13 in 5.0 mi NNW 26.5 mph 34.5 mph N/A   Haze
12:35 PM 70.5 °F 6.3 °F 8% 30.12 in 5.0 mi NNW 27.6 mph 35.7 mph N/A   Haze
12:55 PM 70.5 °F 6.4 °F 8% 30.12 in 7.0 mi North 26.5 mph 36.8 mph N/A   Clear
1:15 PM 71.1 °F 6.4 °F 8% 30.12 in 7.0 mi NNW 28.8 mph 36.8 mph N/A   Clear
1:35 PM 71.2 °F 7.2 °F 8% 30.10 in 5.0 mi NNW 23.0 mph 36.8 mph N/A   Haze
1:55 PM 72.1 °F 7.5 °F 8% 30.10 in 7.0 mi NNW 19.6 mph 28.8 mph N/A   Clear
2:15 PM 71.6 °F 8.8 °F 9% 30.10 in 5.0 mi NNW 24.2 mph 31.1 mph N/A   Haze
2:35 PM 72.0 °F 9.0 °F 9% 30.10 in 7.0 mi NNW 20.7 mph 32.2 mph N/A   Clear
2:55 PM 70.5 °F 9.1 °F 9% 30.10 in 7.0 mi NNW 20.7 mph 29.9 mph N/A   Clear
3:15 PM 71.2 °F 9.7 °F 9% 30.10 in 7.0 mi North 19.6 mph 27.6 mph N/A   Clear
3:35 PM 70.7 °F 10.2 °F 10% 30.10 in 7.0 mi NNW 18.4 mph 27.6 mph N/A   Clear
3:55 PM 71.1 °F 10.8 °F 10% 30.10 in 7.0 mi North 19.6 mph 28.8 mph N/A   Clear
4:15 PM 70.9 °F 11.5 °F 10% 30.11 in 7.0 mi North 15.0 mph 25.3 mph N/A   Clear
4:35 PM 70.0 °F 11.1 °F 10% 30.11 in 7.0 mi North 20.7 mph 28.8 mph N/A   Clear
4:55 PM 68.9 °F 11.1 °F 11% 30.11 in 7.0 mi North 18.4 mph - N/A   Clear
5:15 PM 70.0 °F 11.5 °F 10% 30.12 in 5.0 mi NNW 17.3 mph 20.7 mph N/A   Haze
5:35 PM 69.1 °F 10.9 °F 11% 30.12 in 5.0 mi North 18.4 mph 25.3 mph N/A   Haze
5:55 PM 68.0 °F 10.2 °F 11% 30.12 in 7.0 mi North 15.0 mph - N/A   Clear
6:15 PM 66.2 °F 10.8 °F 12% 30.12 in 7.0 mi North 13.8 mph - N/A   Clear
6:35 PM 64.9 °F 11.3 °F 12% 30.13 in 10.0 mi North 9.2 mph - N/A   Clear
6:55 PM 63.1 °F 12.2 °F 14% 30.15 in 7.0 mi North 6.9 mph - N/A   Clear
7:15 PM 62.1 °F 12.6 °F 14% 30.16 in 7.0 mi North 9.2 mph - N/A   Clear
7:35 PM 61.3 °F 12.7 °F 15% 30.17 in 7.0 mi North 6.9 mph - N/A   Clear
8:15 PM 58.5 °F 14.9 °F 18% 30.19 in 7.0 mi North 5.8 mph - N/A   Clear
8:35 PM 57.0 °F 16.0 °F 20% 30.20 in 7.0 mi North 6.9 mph - N/A   Clear
8:55 PM 57.4 °F 15.3 °F 19% 30.21 in 7.0 mi NNE 6.9 mph - N/A   Clear
9:15 PM 55.8 °F 15.6 °F 21% 30.22 in 7.0 mi NNE 5.8 mph - N/A   Clear
9:35 PM 54.5 °F 16.9 °F 23% 30.23 in 7.0 mi North 4.6 mph - N/A   Clear
10:15 PM 51.4 °F 17.6 °F 26% 30.25 in 7.0 mi Calm Calm - N/A   Clear
10:35 PM 52.0 °F 18.7 °F 27% 30.25 in 7.0 mi Calm Calm - N/A   Clear
10:55 PM 47.7 °F 20.5 °F 34% 30.26 in 7.0 mi Calm Calm - N/A   Clear
11:15 PM 49.1 °F 18.3 °F 30% 30.27 in 7.0 mi Calm Calm - N/A   Clear
11:35 PM 47.5 °F 20.3 °F 34% 30.27 in 7.0 mi SW 6.9 mph - N/A   Clear
11:55 PM 47.7 °F 22.1 °F 37% 30.27 in 7.0 mi West 3.5 mph - N/A   Clear